Temp_Advection
nan nan nan nan nan nan nan nan nan nan nan nan nan nan nan nan nan nan nan nan nan nan nan nan nan nan nan nan nan nan nan nan nan nan nan nan nan nan nan nan nan nan nan nan
nan -0 0 -0 -0 -0 -0 -0 0 1 1 1 -0 -0 -0 -0 0 0 0 0 0 -0 -0 -0 -0 -0 -0 -0 0 0 0 -0 -0 0 0 -0 0 0 -0 -0 -0 -0 -0 nan
nan -0 -0 0 -0 -0 -0 0 0 -0 1 -0 0 0 1 0 0 0 0 0 0 0 0 -0 -0 -0 -0 -0 0 0 0 -0 -0 -0 -0 -0 -0 -0 0 -0 -0 -0 -0 nan
nan 0 -0 0 0 -0 -0 -0 -0 0 0 0 -0 0 0 0 1 -0 -0 0 0 1 0 0 -0 -0 -0 0 -0 0 0 0 0 -0 0 0 -0 -0 0 0 -0 -0 -0 nan
nan 0 0 0 -0 0 -0 -0 -0 -0 0 0 -0 0 -0 0 0 0 0 0 -0 0 0 0 1 0 0 0 -0 -0 -0 0 0 -0 1 0 0 0 0 0 0 0 0 nan
nan -0 0 -0 -0 -0 -0 0 -0 -0 -0 -0 0 0 0 1 -1 -0 0 1 0 -0 -0 0 0 0 -0 0 0 0 0 0 0 -0 -0 -0 -0 1 0 1 -0 0 1 nan
nan -0 -0 -0 0 0 -0 -0 -0 -0 -0 0 -0 0 0 1 0 -0 0 0 -0 0 1 -0 -0 -0 -0 -0 -0 0 0 -0 -0 -0 0 0 -0 -0 0 -0 -0 0 0 nan
nan -0 -0 -0 -0 0 0 -0 -0 0 0 -0 -0 -0 -0 -0 0 0 0 0 1 0 0 0 0 0 -0 -0 -0 0 -0 0 0 -0 0 -0 -0 -0 0 -0 0 0 -0 nan
nan -0 -0 -0 -0 -0 0 -0 -0 -0 0 0 -0 -0 -0 0 -0 -0 -0 0 1 0 0 0 0 0 -0 -0 -0 -0 -0 0 0 0 0 0 -0 0 0 -0 0 0 -0 nan
nan -0 -0 -0 -0 -0 0 0 0 0 0 0 0 0 -0 -0 0 -0 -0 0 0 0 0 0 0 0 0 0 -0 -0 -0 0 0 0 -0 -0 -0 0 -0 -0 -0 0 0 nan
nan -0 -0 -0 0 -0 0 -0 0 0 -0 0 0 0 -0 -0 -0 -0 -0 -0 -0 -0 0 0 0 0 0 0 0 -0 0 -0 0 -0 -0 -0 -0 -0 -0 -0 0 0 0 nan
nan -0 -0 -0 -0 -0 -0 -0 0 0 -0 -0 0 0 1 0 -0 -1 -0 -0 -0 -0 -0 -0 0 -0 0 0 0 -0 -0 0 0 0 -0 0 -0 -0 -0 -0 -0 0 0 nan
nan -0 -0 -0 -0 0 0 -0 0 0 -0 0 0 0 1 1 0 -0 -0 -0 -0 -0 -0 -0 0 -0 -0 0 -0 0 0 -0 -0 0 -0 0 0 0 0 0 0 0 0 nan
nan 0 -0 -0 -0 -0 0 -0 0 0 -0 -0 -0 0 0 1 1 0 -0 -1 -0 -0 -1 -1 -0 0 -0 0 0 0 -0 0 -0 0 0 0 1 1 1 1 1 0 0 nan
nan -0 -0 -0 -0 -0 -0 -0 0 0 -0 -0 0 0 0 1 1 1 0 0 -0 -1 -1 -0 0 0 -0 -0 -0 -0 0 0 -0 0 0 0 0 1 1 1 1 0 0 nan
nan -0 -0 -0 -0 -0 -0 -0 -0 0 0 -0 -0 0 0 1 1 0 0 0 -0 -0 -0 0 0 -0 -0 -0 0 0 0 1 0 -0 0 0 -0 0 0 0 0 0 0 nan
nan -0 -0 -0 -0 -0 -0 -0 -0 0 -0 -0 -0 -0 0 0 0 0 0 -0 -0 -0 -0 0 0 0 -0 -0 0 0 0 1 1 0 0 0 0 0 0 0 0 -0 -0 nan
nan 0 0 -0 -0 0 0 0 0 -0 -0 -0 -0 -0 0 0 -0 -0 0 0 -0 -0 -0 -0 0 -0 -0 -0 -0 0 0 0 0 -0 -0 -0 0 0 -0 -0 -0 -0 -0 nan
nan 0 0 -0 -0 -0 -0 0 0 0 -0 -0 -0 -0 0 0 0 0 0 -0 -0 0 0 0 0 0 0 -0 0 0 0 0 -0 0 0 0 0 -0 -0 -0 -0 -0 -0 nan
nan -0 -0 -0 -0 -0 -0 -0 -0 -0 -0 -0 -0 -0 0 0 0 -0 0 -0 -0 0 -0 -0 -0 -0 -0 0 0 0 0 0 0 0 0 -0 -0 -0 -0 -0 -0 -0 -0 nan
nan -0 -0 -0 -0 -0 -0 -1 -0 -0 -0 -0 -0 -0 -0 0 -0 0 -0 0 0 0 -0 0 0 0 -0 0 0 0 0 0 0 -0 -0 -0 -0 -0 -0 -0 0 -0 -0 nan
nan -0 -0 -0 -0 -0 -1 -0 -0 0 0 -0 -0 -0 0 0 0 -0 0 -0 0 -0 0 -0 0 0 0 0 0 0 0 0 0 -0 -0 -0 0 -0 -0 -0 -0 -0 -0 nan
nan 0 0 -0 -0 -1 -0 0 -0 0 -0 -0 -0 0 0 0 -0 -0 -0 -0 -0 0 -0 0 0 -0 -0 0 0 0 0 -0 -0 -0 -0 -0 -0 -0 -0 -0 -0 -0 -0 nan
nan 0 0 -0 -0 0 0 0 0 0 0 0 -0 -0 0 -0 -0 0 0 0 -0 -0 -0 1 -0 0 -0 0 0 0 -0 -0 -0 -0 -0 -0 -0 -0 -0 -0 -0 -0 -1 nan
nan -0 -0 -0 -0 0 -0 0 0 0 0 0 -0 -0 0 -0 -0 0 0 -0 0 0 0 0 -1 0 0 0 0 -0 -0 -0 0 -0 -0 -0 -0 -0 -0 -0 0 0 -0 nan
nan -1 -0 -0 -0 -0 -0 -0 -0 -0 0 -0 0 -0 0 0 0 -0 0 0 0 0 0 0 0 0 0 0 0 0 -0 -0 -0 0 0 -0 -0 -0 -0 -0 0 0 -0 nan
nan nan nan nan nan nan nan nan nan nan nan nan nan nan nan nan nan nan nan nan nan nan nan nan nan nan nan nan nan nan nan nan nan nan nan nan nan nan nan nan nan nan nan nan
Wind_Speed
16 15 16 20 23 18 11 6 4 29 44 9 11 17 22 7 10 2 2 3 2 7 10 6 6 10 1 7 6 10 5 5 4 7 3 5 5 6 5 4 5 2 3 3
16 13 15 23 23 14 9 3 2 13 40 10 13 9 17 16 11 6 6 6 3 1 6 5 6 5 3 8 3 6 5 4 3 5 4 2 5 5 4 3 3 5 5 3
14 11 16 20 23 8 8 4 2 2 15 1 10 19 14 22 6 3 4 4 4 3 3 3 6 3 3 5 4 6 2 2 5 7 5 5 5 6 7 5 3 4 5 7
13 12 16 16 22 13 5 1 1 1 3 4 3 13 7 21 7 2 1 3 2 6 4 3 6 3 2 5 3 4 3 4 2 3 5 4 4 4 6 9 7 4 4 6
12 12 16 17 24 6 2 2 2 3 3 3 8 11 12 18 5 4 4 7 1 2 5 1 6 5 1 3 3 3 4 3 2 3 5 4 2 4 4 3 4 4 5 3
15 10 14 14 17 12 3 1 1 1 1 2 4 4 10 17 17 2 4 10 6 5 5 14 13 14 11 5 5 3 3 5 3 4 3 5 9 7 9 6 3 2 8 5
16 14 15 15 14 15 5 4 1 2 0 1 2 2 3 8 8 11 4 6 5 12 24 22 18 21 16 12 8 6 4 4 3 3 3 4 2 3 2 8 5 9 13 9
16 14 18 15 13 13 11 2 3 2 2 3 5 6 8 15 19 6 6 5 14 29 9 4 3 2 3 5 4 5 3 2 3 4 6 2 2 1 3 2 1 4 11 11
16 17 19 16 13 11 10 2 1 2 2 1 7 5 10 6 5 4 8 24 25 8 3 2 4 3 4 4 2 3 4 4 2 2 4 6 1 1 3 2 1 6 13 10
17 16 16 16 12 10 7 2 1 3 4 5 6 2 3 8 5 4 5 8 4 2 2 3 2 2 2 4 5 4 3 3 2 2 2 1 3 4 2 4 3 13 13 11
18 14 12 12 13 13 6 4 5 4 4 9 6 7 8 10 4 4 11 6 1 2 3 3 3 3 3 3 4 5 4 4 2 2 2 4 9 4 5 4 16 16 12 9
20 16 12 11 12 12 13 4 8 6 5 10 19 19 15 11 5 15 10 3 5 6 3 2 3 3 2 4 2 2 2 3 4 3 3 2 19 2 9 20 21 13 12 7
20 15 12 9 11 11 10 6 6 12 14 8 9 15 14 12 10 21 6 3 3 6 5 5 2 4 2 2 2 3 3 1 3 4 2 6 12 14 14 14 14 12 8 4
14 13 10 9 6 7 6 4 3 10 6 4 6 7 11 13 10 7 6 16 13 13 9 5 3 3 1 1 3 3 3 4 4 1 3 5 9 8 13 13 11 9 5 4
12 12 10 10 5 3 1 5 3 5 4 4 6 14 13 11 11 14 13 13 15 8 5 4 1 3 4 2 3 1 2 4 3 3 3 4 5 11 13 15 10 6 4 5
17 14 10 6 4 7 2 4 7 9 12 6 2 5 13 12 11 12 10 11 11 8 5 4 4 3 3 3 2 5 6 8 6 8 8 10 14 9 7 6 3 1 3 4
14 13 13 10 10 5 6 4 2 5 7 4 4 3 4 11 9 10 10 9 8 6 5 3 3 2 3 3 2 4 8 10 11 9 10 8 6 4 3 1 1 3 4 4
11 11 10 9 9 9 12 10 9 6 7 5 3 2 2 4 4 4 3 4 4 5 4 3 3 3 3 2 5 7 7 7 7 7 5 7 5 2 1 2 3 3 3 6
15 12 5 4 2 4 7 7 6 8 5 4 3 3 2 3 4 4 3 3 3 3 1 2 4 1 2 2 7 5 5 3 4 6 5 5 2 1 3 4 5 6 7 8
14 10 4 5 3 3 3 1 2 3 6 5 3 3 2 2 2 2 3 3 2 1 1 5 2 2 5 4 5 5 4 4 4 7 3 2 1 3 4 6 7 9 11 13
12 8 6 5 8 5 3 4 5 6 3 5 4 5 3 2 2 2 2 2 1 3 3 4 2 1 2 6 8 8 7 6 7 6 3 2 4 7 9 10 11 13 15 17
9 9 6 4 4 3 5 2 3 3 2 3 2 4 4 3 2 3 1 3 3 2 4 3 1 2 5 6 7 7 6 5 3 3 3 5 7 10 14 16 18 19 20 22
5 1 2 3 4 5 4 1 3 2 2 1 1 2 2 2 2 4 2 2 2 6 2 2 2 5 6 6 6 4 2 2 3 6 8 11 13 13 15 18 18 21 22 23
3 2 3 2 2 1 1 1 1 1 2 3 5 3 1 2 3 2 4 0 3 2 0 4 2 10 8 6 4 1 3 6 8 10 11 12 13 14 15 17 18 21 22 22
3 4 2 3 3 5 3 3 2 1 2 2 3 2 1 1 2 1 3 3 1 4 4 2 11 11 8 4 1 4 7 9 9 11 13 15 17 19 20 19 20 21 22 22
4 7 3 8 2 2 4 7 3 3 4 2 1 2 2 1 2 3 3 6 5 2 2 14 12 8 2 2 5 6 9 12 14 15 17 18 18 20 21 20 19 19 20 22
4 5 8 6 4 4 3 4 5 5 1 1 1 2 3 1 3 2 2 2 2 12 14 10 5 2 3 4 6 9 11 12 14 15 16 17 17 17 18 20 19 20 22 24
Wind_Direction
321 319 314 331 313 306 287 166 127 162 179 171 167 202 196 206 240 214 157 117 133 171 168 159 198 196 281 346 146 168 187 111 161 207 247 190 172 183 162 139 224 214 153 233
332 324 330 328 323 298 344 78 38 163 178 188 197 199 208 222 203 187 166 179 180 75 155 141 175 116 22 4 71 134 175 176 93 357 351 3 202 197 193 143 109 191 145 206
338 334 343 330 323 254 356 134 155 310 197 321 205 190 190 202 224 198 175 151 131 128 128 45 151 116 29 21 69 88 92 95 156 186 188 136 176 202 191 157 145 185 200 152
341 341 343 340 338 316 323 90 90 145 150 232 261 183 170 195 209 19 52 71 140 152 139 121 118 101 121 35 31 53 82 156 99 55 67 85 143 178 184 201 207 180 193 146
351 327 339 350 351 18 332 61 59 62 92 173 182 186 199 189 163 151 214 135 117 71 123 156 167 132 135 146 35 76 9 143 103 350 134 119 249 243 194 207 201 224 193 142
353 346 343 350 354 352 338 336 100 210 249 216 154 184 188 198 152 83 86 144 118 93 108 97 88 79 73 94 134 122 115 135 90 257 2 41 280 188 212 202 66 184 199 168
355 359 350 354 350 357 320 288 185 238 236 74 80 101 122 161 183 150 111 130 94 121 124 101 81 75 72 66 50 56 127 109 101 153 74 222 12 340 110 101 70 107 105 119
355 354 355 348 341 328 330 279 335 345 47 80 85 83 103 95 86 87 108 105 148 135 89 74 84 71 73 59 48 65 38 132 152 182 202 74 320 240 151 162 167 144 121 112
353 345 349 353 342 329 322 288 215 8 105 259 126 105 119 108 89 70 83 116 118 95 96 125 150 165 129 147 101 80 71 52 170 131 182 198 91 117 45 50 234 176 141 143
351 344 345 349 342 326 293 196 41 123 92 108 98 104 112 130 97 94 122 134 128 155 121 96 119 116 108 146 141 151 97 63 101 80 98 346 222 149 102 112 193 150 139 136
349 343 339 339 353 355 280 325 87 81 85 64 105 112 123 127 126 138 155 103 14 37 77 118 171 122 188 118 157 165 149 147 156 142 110 237 159 103 157 173 143 148 144 146
347 341 340 347 349 343 351 330 129 108 93 106 96 91 102 107 135 133 162 139 138 154 102 67 96 76 77 153 163 3 111 163 162 140 181 142 167 144 149 146 150 150 153 165
342 342 339 341 333 328 340 5 186 134 115 96 106 80 95 118 122 145 118 88 106 96 90 126 133 96 120 125 240 94 42 67 100 86 323 146 157 147 153 162 163 166 175 212
344 344 348 341 342 337 317 35 133 155 116 98 53 98 96 88 99 143 101 127 123 114 101 83 104 113 32 162 142 114 206 106 133 92 120 132 170 156 165 161 169 178 198 239
7 358 356 6 5 3 344 53 88 123 129 109 119 82 77 94 100 102 108 115 120 79 62 61 110 117 92 16 71 347 198 166 141 199 163 152 141 136 158 172 175 190 224 226
16 19 28 5 63 357 30 55 44 104 110 105 90 82 73 92 115 109 101 95 93 80 71 69 66 79 104 97 154 16 69 112 155 143 105 126 142 149 150 162 165 224 263 264
54 41 33 28 16 52 78 59 346 116 105 92 111 84 59 80 82 83 78 75 75 79 96 80 116 81 67 100 173 89 88 92 96 119 141 119 157 155 133 133 268 303 299 289
31 36 42 57 71 81 79 77 75 82 63 64 91 65 66 64 64 68 69 79 76 57 96 92 92 78 55 179 122 117 117 91 82 82 95 129 143 136 11 339 323 307 293 287
352 355 337 331 322 39 37 47 62 51 69 104 89 123 130 88 82 93 84 82 61 63 69 125 140 152 200 64 143 126 89 102 94 108 110 115 144 80 335 343 328 324 316 308
345 355 349 35 35 14 340 298 35 49 30 46 79 114 97 100 124 84 96 45 94 123 242 131 113 117 115 114 131 129 120 104 106 157 126 87 56 345 332 329 323 313 308 307
13 7 26 6 346 355 29 47 40 357 39 31 49 65 130 100 130 119 85 172 153 97 237 140 205 178 170 146 145 134 118 95 93 98 75 7 334 330 322 314 310 309 308 306
330 313 323 349 353 17 71 19 3 34 84 33 43 47 71 103 112 108 192 130 54 180 158 86 243 246 146 143 131 117 106 94 68 32 349 324 316 311 310 310 309 308 305 303
318 247 297 3 348 34 87 322 318 117 52 93 97 52 58 85 81 79 89 103 168 130 74 213 217 159 147 135 120 109 80 27 334 319 308 304 303 301 301 301 302 300 298 299
322 272 313 126 344 313 140 158 119 50 83 145 113 94 94 79 57 131 88 135 81 69 113 230 226 168 144 137 132 123 310 313 315 313 312 311 309 309 310 310 310 306 307 308
336 348 23 37 108 53 87 90 54 47 155 108 90 84 138 134 89 120 96 44 229 194 217 205 158 155 154 159 229 294 304 312 320 324 325 324 323 320 318 317 314 314 312 309
33 39 32 354 52 31 40 30 45 21 194 195 218 143 73 227 141 80 206 135 210 192 141 139 150 160 182 295 313 320 325 328 327 324 321 318 317 315 312 315 315 314 310 309
46 34 31 16 48 36 6 3 354 353 357 293 317 123 203 63 56 79 19 138 93 124 130 144 159 239 304 327 330 319 315 316 319 319 317 316 317 314 315 316 317 313 310 310
Height
1415 1412 1408 1401 1400 1396 1391 1378 1389 1390 1402 1411 1417 1424 1411 1422 1420 1425 1426 1425 1428 1432 1439 1445 1450 1449 1448 1448 1447 1456 1458 1476 1495 1491 1481 1479 1482 1486 1489 1503 1501 1514 1517 1517
1412 1410 1406 1402 1398 1396 1390 1384 1388 1388 1394 1398 1402 1408 1416 1422 1421 1421 1424 1426 1424 1427 1433 1442 1441 1446 1452 1450 1449 1452 1456 1468 1499 1492 1487 1481 1480 1480 1480 1483 1490 1498 1512 1511
1411 1409 1405 1402 1397 1392 1388 1391 1391 1391 1390 1399 1401 1404 1409 1417 1418 1419 1419 1420 1424 1428 1430 1430 1438 1448 1452 1451 1453 1455 1455 1460 1469 1476 1470 1471 1480 1476 1477 1479 1498 1491 1493 1510
1411 1408 1407 1403 1395 1392 1392 1391 1391 1392 1393 1399 1401 1402 1407 1414 1417 1418 1419 1422 1423 1426 1435 1433 1438 1449 1455 1455 1456 1456 1457 1464 1466 1466 1466 1466 1468 1471 1475 1478 1480 1488 1484 1493
1413 1409 1406 1400 1397 1392 1390 1390 1390 1392 1396 1399 1401 1395 1403 1405 1417 1418 1421 1422 1430 1431 1435 1440 1440 1444 1449 1450 1457 1460 1463 1476 1474 1477 1467 1468 1470 1471 1474 1476 1477 1480 1481 1499
1412 1410 1408 1403 1398 1393 1391 1392 1393 1396 1397 1397 1395 1392 1395 1396 1405 1420 1419 1422 1426 1435 1440 1443 1446 1448 1451 1453 1458 1465 1468 1472 1479 1484 1475 1474 1475 1475 1473 1471 1477 1476 1482 1492
1411 1409 1407 1402 1400 1397 1395 1396 1396 1398 1395 1392 1390 1393 1394 1399 1400 1409 1420 1422 1421 1437 1440 1444 1448 1451 1456 1459 1462 1462 1467 1470 1478 1491 1483 1483 1478 1479 1478 1483 1488 1486 1489 1494
1413 1410 1406 1402 1400 1400 1398 1395 1395 1394 1392 1392 1395 1396 1398 1400 1402 1411 1418 1421 1425 1431 1438 1447 1455 1458 1460 1465 1467 1466 1467 1470 1473 1472 1473 1479 1484 1480 1481 1478 1493 1490 1490 1496
1415 1410 1407 1404 1403 1400 1398 1396 1396 1396 1396 1397 1398 1399 1402 1402 1405 1413 1419 1423 1426 1435 1441 1446 1448 1452 1454 1462 1468 1469 1469 1471 1468 1475 1472 1470 1482 1479 1479 1480 1492 1490 1492 1495
1418 1414 1410 1409 1406 1402 1399 1398 1397 1397 1398 1401 1402 1402 1404 1407 1411 1418 1422 1427 1432 1436 1441 1448 1455 1457 1457 1459 1463 1469 1471 1474 1475 1474 1477 1481 1479 1479 1481 1489 1490 1488 1491 1494
1418 1416 1414 1411 1405 1403 1402 1399 1397 1398 1401 1404 1403 1404 1407 1411 1412 1415 1423 1429 1435 1436 1443 1446 1453 1461 1458 1461 1460 1462 1465 1470 1475 1476 1481 1482 1477 1481 1484 1482 1484 1488 1492 1495
1416 1412 1410 1408 1405 1405 1400 1398 1398 1400 1402 1407 1407 1409 1411 1412 1413 1416 1423 1424 1425 1427 1436 1444 1450 1459 1463 1461 1468 1458 1470 1465 1469 1471 1473 1470 1473 1476 1478 1481 1483 1488 1491 1494
1414 1411 1407 1406 1405 1404 1402 1400 1401 1402 1405 1409 1411 1414 1416 1416 1416 1419 1420 1424 1424 1425 1428 1434 1447 1458 1459 1466 1468 1465 1464 1463 1471 1474 1474 1473 1475 1477 1479 1482 1484 1487 1491 1493
1413 1411 1410 1408 1406 1406 1404 1401 1401 1404 1406 1411 1418 1417 1420 1419 1420 1421 1422 1421 1425 1427 1430 1435 1447 1454 1455 1463 1459 1464 1465 1465 1469 1472 1471 1474 1478 1479 1479 1482 1484 1487 1489 1491
1413 1411 1410 1409 1408 1405 1403 1403 1404 1404 1408 1412 1420 1421 1422 1422 1422 1424 1426 1425 1425 1430 1436 1442 1451 1451 1454 1459 1461 1469 1463 1466 1470 1474 1472 1473 1478 1479 1480 1480 1483 1486 1488 1489
1417 1413 1411 1409 1406 1406 1406 1406 1408 1408 1408 1412 1422 1426 1427 1425 1426 1427 1429 1430 1430 1434 1441 1447 1449 1451 1454 1467 1473 1467 1464 1463 1464 1468 1470 1471 1476 1479 1481 1481 1483 1484 1485 1486
1421 1419 1416 1413 1410 1408 1409 1414 1413 1412 1411 1413 1421 1427 1428 1428 1429 1430 1433 1434 1435 1438 1444 1450 1453 1454 1454 1463 1472 1467 1466 1466 1467 1469 1470 1475 1478 1479 1480 1480 1482 1483 1483 1483
1425 1423 1420 1418 1417 1416 1416 1415 1415 1414 1413 1414 1421 1430 1431 1432 1434 1436 1437 1438 1440 1443 1447 1451 1453 1455 1457 1462 1466 1467 1467 1468 1468 1468 1470 1474 1477 1479 1479 1479 1479 1480 1479 1481
1426 1423 1421 1420 1419 1418 1418 1417 1416 1415 1418 1417 1422 1430 1434 1435 1436 1439 1441 1440 1445 1448 1449 1451 1455 1459 1463 1463 1466 1466 1466 1469 1471 1469 1473 1474 1477 1476 1479 1476 1478 1477 1477 1477
1426 1423 1421 1421 1422 1421 1420 1419 1418 1418 1420 1422 1428 1431 1435 1436 1436 1440 1441 1441 1445 1453 1453 1454 1457 1459 1466 1467 1468 1467 1469 1469 1467 1471 1472 1474 1476 1478 1477 1476 1476 1476 1475 1474
1426 1425 1425 1425 1423 1422 1421 1421 1423 1426 1428 1429 1432 1432 1435 1438 1438 1440 1441 1446 1449 1464 1457 1458 1458 1459 1468 1469 1470 1470 1469 1468 1469 1472 1474 1475 1476 1476 1475 1474 1474 1473 1471 1469
1431 1430 1426 1425 1424 1424 1426 1433 1430 1429 1433 1433 1433 1435 1435 1437 1437 1440 1444 1450 1452 1461 1452 1458 1460 1468 1467 1467 1467 1468 1468 1469 1471 1473 1474 1474 1474 1473 1472 1470 1469 1467 1465 1463
1429 1428 1427 1427 1428 1434 1439 1443 1441 1433 1434 1435 1435 1437 1436 1437 1438 1440 1443 1448 1454 1449 1456 1458 1466 1463 1464 1465 1467 1468 1469 1470 1471 1472 1472 1471 1470 1469 1468 1465 1464 1461 1458 1457
1430 1428 1429 1431 1435 1436 1435 1435 1434 1435 1435 1435 1435 1436 1438 1438 1439 1441 1448 1447 1449 1461 1464 1464 1463 1463 1465 1466 1468 1469 1470 1470 1470 1469 1468 1467 1465 1463 1462 1460 1457 1454 1452 1450
1432 1430 1434 1435 1436 1435 1435 1435 1436 1436 1436 1436 1436 1437 1438 1438 1441 1442 1445 1455 1460 1458 1461 1459 1460 1463 1465 1466 1467 1467 1467 1467 1466 1465 1463 1461 1459 1457 1455 1454 1451 1449 1446 1443
1435 1437 1438 1438 1437 1438 1437 1437 1437 1437 1437 1437 1438 1438 1440 1440 1440 1444 1450 1452 1457 1456 1456 1458 1461 1463 1464 1465 1465 1465 1464 1463 1462 1460 1459 1457 1455 1452 1450 1448 1446 1443 1440 1437
1440 1444 1444 1443 1443 1443 1441 1440 1439 1439 1439 1437 1436 1438 1440 1441 1445 1448 1448 1452 1453 1454 1457 1459 1461 1463 1463 1462 1462 1462 1461 1460 1459 1457 1455 1453 1450 1448 1445 1443 1441 1438 1435 1432